User: anonymous   Login
Location: Cornospital
(48.0620°N, 3.3837°W)
Time: 23:04:25
(UTC+00:00)
Language:

Cosmos 2219 Rocket - Orbit

View from above orbital plane
View from above orbital plane
View from above satellite
View from above satellite

Ground track
Ground track

The orbit data is extracted from the following two-line orbital elements,

1 22220U 92076B   21271.55671935 -.00000255  00000-0 -10409-3 0  9997
2 22220  71.0032   6.1884 0011224  40.4970 333.2342 14.16475601491968
Epoch (UTC): 28 September 2021 13:21:40
Eccentricity: 0.0011224
inclination: 71.0032°
perigee height: 829 km
apogee height: 845 km
right ascension of ascending node: 6.1884°
argument of perigee: 40.4970°
revolutions per day: 14.16475601
mean anomaly at epoch: 333.2342°
orbit number at epoch: 49196

The dashed part of the orbit path shows where the satellite is in the earth's shadow,  

DLR